CDT,Max TemperatureF,Mean TemperatureF,Min TemperatureF,Max Dew PointF,MeanDew PointF,Min DewpointF,Max Humidity, Mean Humidity, Min Humidity, Max Sea Level PressureIn, Mean Sea Level PressureIn, Min Sea Level PressureIn, Max VisibilityMiles, Mean VisibilityMiles, Min VisibilityMiles, Max Wind SpeedMPH, Mean Wind SpeedMPH, Max Gust SpeedMPH,PrecipitationIn, CloudCover, Events, WindDirDegrees
2013-5-1,48,41,34,32,25,20,67,57,49,30.55,30.36,30.02,10,10,10,23,16,33,0.00,6,,326
2013-5-2,46,38,30,26,24,21,79,58,40,30.65,30.56,30.49,10,10,10,26,15,34,0.00,0,,332
2013-5-3,48,36,25,32,23,20,84,58,34,30.48,30.30,30.18,10,10,10,21,11,28,0.00,4,,354
2013-5-4,40,37,34,38,35,32,96,91,84,30.22,30.19,30.16,10,8,3,17,11,23,0.02,8,Rain,355
2013-5-5,51,44,38,43,40,37,98,89,73,30.21,30.18,30.14,10,7,0,10,7,,0.00,8,Fog-Rain,323
2013-5-6,68,54,39,48,43,38,95,72,47,30.16,30.11,30.04,10,10,7,9,6,,0.00,4,,250
2013-5-7,76,58,39,47,41,36,93,55,25,30.09,30.02,29.94,10,9,5,14,4,18,0.00,1,,167
2013-5-8,61,60,54,57,53,41,94,85,41,30.03,30.00,29.97,10,8,4,14,5,10,0.61,8,Rain,27
2013-5-9,57,52,45,53,50,38,94,86,72,30.15,30.05,29.99,10,9,3,17,11,24,0.02,8,Rain,6
2013-5-10,68,52,35,48,33,28,83,54,25,30.17,30.08,29.92,10,10,10,23,7,32,0.01,1,Rain,315
2013-5-11,52,44,37,35,24,15,78,48,24,30.26,30.20,30.06,10,10,10,32,17,40,0.01,1,,314
2013-5-12,60,43,26,24,20,15,77,41,18,30.27,30.20,30.10,10,10,7,15,7,22,0.00,0,,306
2013-5-13,86,65,44,47,35,21,53,37,24,30.10,29.88,29.66,10,10,7,28,12,34,0.00,1,,170
2013-5-14,94,72,50,50,40,26,72,35,12,29.82,29.64,29.53,10,10,7,30,13,40,0.00,0,Rain,254
2013-5-15,78,62,45,54,45,37,85,57,28,29.97,29.89,29.83,10,10,7,18,9,22,0.03,1,Rain,234
2013-5-16,82,64,47,55,42,34,81,46,18,29.93,29.87,29.81,10,10,7,23,6,31,0.01,2,Rain,115
2013-5-17,71,62,55,61,54,43,90,75,48,29.92,29.89,29.86,10,9,7,21,11,28,0.09,6,Rain-Thunderstorm,87
2013-5-18,82,71,60,65,60,57,91,71,46,29.91,29.83,29.74,10,9,4,21,11,26,0.03,3,Rain-Thunderstorm,123
2013-5-19,75,68,61,64,62,59,96,82,62,29.73,29.64,29.55,10,8,2,24,12,34,0.34,5,Rain-Thunderstorm,130
2013-5-20,68,64,59,60,57,53,97,83,64,29.57,29.50,29.47,10,8,2,23,9,26,0.04,8,Rain,146
2013-5-21,59,54,47,57,53,46,96,93,85,29.74,29.59,29.48,10,7,2,17,7,23,0.34,8,Rain,50
2013-5-22,53,49,45,48,46,43,95,89,73,30.06,29.85,29.74,10,8,2,22,13,32,0.08,8,Rain,8
2013-5-23,64,53,42,44,38,30,91,60,28,30.33,30.25,30.06,10,10,7,16,9,22,0.00,0,,37
2013-5-24,69,56,43,51,41,33,82,60,30,30.33,30.25,30.13,10,10,2,23,10,31,0.30,3,Rain-Thunderstorm,109
2013-5-25,57,54,52,51,49,47,86,81,70,30.18,30.15,30.11,10,10,10,23,16,29,0.00,8,,110
2013-5-26,54,52,49,50,48,45,91,85,80,30.18,30.09,30.00,10,9,5,26,14,33,0.00,8,,94
2013-5-27,62,57,52,55,52,50,97,87,77,30.02,29.89,29.81,10,6,1,16,9,24,0.05,8,Rain,82
2013-5-28,64,59,54,57,54,53,97,89,75,29.81,29.75,29.71,10,7,1,13,6,17,0.00,6,,98
2013-5-29,80,66,52,68,60,52,100,86,59,29.78,29.68,29.56,10,6,0,23,9,30,0.07,5,Fog-Rain-Thunderstorm,113
2013-5-30,76,70,63,64,60,56,95,78,52,29.59,29.50,29.46,10,10,2,28,15,37,0.10,5,Rain-Thunderstorm,137
2013-5-31,70,63,56,59,51,48,84,67,46,29.54,29.49,29.44,10,10,10,28,17,36,0.05,5,Rain-Thunderstorm,189